Location: Oberkirch
(48.5323°N, 8.0787°E)
Time: 16:43:16
(UTC+00:00)

Tiros 1 despin weight - Pass Details

Date: 11 February 2026
Orbit: 556 x 593 km, 48.2° (Epoch: 8 March)

Event Time Altitude Azimuth Distance (km) Brightness Sun altitude
Rises 18:29:23 0° 250° (WSW) 2,728 ? -18.1°
Reaches altitude 10° 18:31:38 10° 248° (WSW) 1,835 ? -18.5°
Maximum altitude 18:35:48 70° 166° (SSE) 596 ? -19.2°
Enters shadow 18:36:43 51° 103° (ESE) 710 ? -19.4°
